Time,TemperatureF,DewpointF,PressureIn,WindDirection,WindDirectionDegrees,WindSpeedMPH,WindSpeedGustMPH,Humidity,HourlyPrecipIn,Conditions,Clouds,dailyrainin,SoftwareType,DateUTC
2013-01-03 00:00:00,34.5,27.1,30.23,ENE,68,0.0,1.0,74,0.00,,,0.00,WUHU216DAVISVP2,2013-01-03 08:00:00,
2013-01-03 00:03:00,34.4,26.7,30.23,SE,139,0.0,1.0,73,0.00,,,0.00,WUHU216DAVISVP2,2013-01-03 08:03:00,
2013-01-03 00:08:00,34.4,26.0,30.23,SE,139,0.0,0.0,71,0.00,,,0.00,WUHU216DAVISVP2,2013-01-03 08:08:00,
2013-01-03 00:13:00,34.3,25.6,30.23,SE,139,0.0,0.0,70,0.00,,,0.00,WUHU216DAVISVP2,2013-01-03 08:13:00,
2013-01-03 00:18:00,34.5,25.4,30.22,SE,138,0.0,0.0,69,0.00,,,0.00,WUHU216DAVISVP2,2013-01-03 08:18:00,
2013-01-03 00:23:00,34.8,25.4,30.22,East,94,0.0,0.0,68,0.00,,,0.00,WUHU216DAVISVP2,2013-01-03 08:23:00,
2013-01-03 00:28:00,34.3,25.9,30.23,WSW,249,0.0,0.0,71,0.00,,,0.00,WUHU216DAVISVP2,2013-01-03 08:28:00,
2013-01-03 00:30:00,34.1,25.7,30.22,North,0,0.0,0.0,71,0.00,,,0.00,WUHU216DAVISVP2,2013-01-03 08:30:00,
2013-01-03 00:33:00,33.5,25.5,30.23,WSW,249,0.0,0.0,72,0.00,,,0.00,WUHU216DAVISVP2,2013-01-03 08:33:00,
2013-01-03 00:38:00,33.5,25.8,30.22,ENE,59,0.0,1.0,73,0.00,,,0.00,WUHU216DAVISVP2,2013-01-03 08:38:00,
2013-01-03 00:43:00,33.5,25.8,30.22,ENE,59,0.0,1.0,73,0.00,,,0.00,WUHU216DAVISVP2,2013-01-03 08:43:00,
2013-01-03 00:48:00,33.8,25.4,30.22,West,260,0.0,2.0,71,0.00,,,0.00,WUHU216DAVISVP2,2013-01-03 08:48:00,
2013-01-03 00:53:00,33.7,24.3,30.22,WSW,255,0.0,2.0,68,0.00,,,0.00,WUHU216DAVISVP2,2013-01-03 08:53:00,
2013-01-03 00:58:00,33.8,24.4,30.22,SW,231,0.0,2.0,68,0.00,,,0.00,WUHU216DAVISVP2,2013-01-03 08:58:00,
2013-01-03 01:00:00,33.9,24.4,30.22,WSW,248,0.0,2.0,68,0.00,,,0.00,WUHU216DAVISVP2,2013-01-03 09:00:00,
2013-01-03 01:03:00,34.1,24.6,30.22,SW,235,0.0,2.0,68,0.00,,,0.00,WUHU216DAVISVP2,2013-01-03 09:03:00,
2013-01-03 01:08:00,33.7,24.7,30.22,NNW,340,0.0,1.0,69,0.00,,,0.00,WUHU216DAVISVP2,2013-01-03 09:08:00,
2013-01-03 01:13:00,33.8,24.8,30.22,NNW,340,0.0,1.0,69,0.00,,,0.00,WUHU216DAVISVP2,2013-01-03 09:13:00,
2013-01-03 01:18:00,33.8,24.8,30.22,NNW,340,0.0,0.0,69,0.00,,,0.00,WUHU216DAVISVP2,2013-01-03 09:18:00,
2013-01-03 01:23:00,33.8,24.4,30.23,NNW,338,0.0,0.0,68,0.00,,,0.00,WUHU216DAVISVP2,2013-01-03 09:23:00,
2013-01-03 01:28:00,34.4,23.9,30.23,East,79,0.0,2.0,65,0.00,,,0.00,WUHU216DAVISVP2,2013-01-03 09:28:00,
2013-01-03 01:30:00,34.5,23.9,30.23,NE,45,0.0,2.0,65,0.00,,,0.00,WUHU216DAVISVP2,2013-01-03 09:30:00,
2013-01-03 01:33:00,34.5,24.0,30.23,SSE,158,0.0,2.0,65,0.00,,,0.00,WUHU216DAVISVP2,2013-01-03 09:33:00,
2013-01-03 01:38:00,34.2,24.1,30.23,SE,145,0.0,2.0,66,0.00,,,0.00,WUHU216DAVISVP2,2013-01-03 09:38:00,
2013-01-03 01:43:00,34.3,24.5,30.23,South,183,0.0,2.0,67,0.00,,,0.00,WUHU216DAVISVP2,2013-01-03 09:43:00,
2013-01-03 01:48:00,34.5,24.7,30.23,South,185,0.0,3.0,67,0.00,,,0.00,WUHU216DAVISVP2,2013-01-03 09:48:00,
2013-01-03 01:53:00,34.4,24.3,30.23,SSE,155,1.0,4.0,66,0.00,,,0.00,WUHU216DAVISVP2,2013-01-03 09:53:00,
2013-01-03 01:58:00,34.3,24.5,30.23,SSE,160,2.0,4.0,67,0.00,,,0.00,WUHU216DAVISVP2,2013-01-03 09:58:00,
2013-01-03 02:00:00,34.3,24.5,30.24,SSE,158,0.0,4.0,67,0.00,,,0.00,WUHU216DAVISVP2,2013-01-03 10:00:00,
2013-01-03 02:03:00,34.2,24.4,30.23,SSE,161,1.0,4.0,67,0.00,,,0.00,WUHU216DAVISVP2,2013-01-03 10:03:00,
2013-01-03 02:08:00,34.0,24.9,30.24,SSE,150,0.0,4.0,69,0.00,,,0.00,WUHU216DAVISVP2,2013-01-03 10:08:00,
2013-01-03 02:13:00,33.9,25.1,30.24,ESE,121,0.0,3.0,70,0.00,,,0.00,WUHU216DAVISVP2,2013-01-03 10:13:00,
2013-01-03 02:18:00,33.8,25.1,30.23,ESE,118,0.0,3.0,70,0.00,,,0.00,WUHU216DAVISVP2,2013-01-03 10:18:00,
2013-01-03 02:23:00,33.7,25.4,30.23,East,91,0.0,1.0,71,0.00,,,0.00,WUHU216DAVISVP2,2013-01-03 10:23:00,
2013-01-03 02:28:00,33.5,25.2,30.23,ENE,70,0.0,1.0,71,0.00,,,0.00,WUHU216DAVISVP2,2013-01-03 10:28:00,
2013-01-03 02:30:00,33.5,25.1,30.23,East,90,0.0,3.0,71,0.00,,,0.00,WUHU216DAVISVP2,2013-01-03 10:30:00,
2013-01-03 02:33:00,33.4,25.7,30.23,ENE,61,0.0,2.0,73,0.00,,,0.00,WUHU216DAVISVP2,2013-01-03 10:33:00,
2013-01-03 02:38:00,33.1,25.8,30.23,ENE,74,0.0,2.0,74,0.00,,,0.00,WUHU216DAVISVP2,2013-01-03 10:38:00,
2013-01-03 02:43:00,32.7,26.0,30.23,East,93,0.0,2.0,76,0.00,,,0.00,WUHU216DAVISVP2,2013-01-03 10:43:00,
2013-01-03 02:48:00,32.5,26.4,30.23,ENE,70,0.0,2.0,78,0.00,,,0.00,WUHU216DAVISVP2,2013-01-03 10:48:00,
2013-01-03 02:53:00,32.4,26.6,30.23,ENE,70,0.0,1.0,79,0.00,,,0.00,WUHU216DAVISVP2,2013-01-03 10:53:00,
2013-01-03 02:58:00,32.3,26.5,30.23,ENE,74,0.0,1.0,79,0.00,,,0.00,WUHU216DAVISVP2,2013-01-03 10:58:00,
2013-01-03 03:00:00,32.3,26.8,30.23,ENE,68,0.0,2.0,80,0.00,,,0.00,WUHU216DAVISVP2,2013-01-03 11:00:00,
2013-01-03 03:03:00,32.3,26.8,30.23,ENE,63,0.0,1.0,80,0.00,,,0.00,WUHU216DAVISVP2,2013-01-03 11:03:00,
2013-01-03 03:08:00,32.3,27.1,30.23,ENE,66,0.0,1.0,81,0.00,,,0.00,WUHU216DAVISVP2,2013-01-03 11:08:00,
2013-01-03 03:13:00,32.3,27.1,30.23,ENE,63,0.0,1.0,81,0.00,,,0.00,WUHU216DAVISVP2,2013-01-03 11:13:00,
2013-01-03 03:18:00,32.3,27.1,30.23,East,87,0.0,1.0,81,0.00,,,0.00,WUHU216DAVISVP2,2013-01-03 11:18:00,
2013-01-03 03:23:00,32.4,26.6,30.23,ENE,72,0.0,1.0,79,0.00,,,0.00,WUHU216DAVISVP2,2013-01-03 11:23:00,
2013-01-03 03:28:00,32.5,27.0,30.23,ENE,71,0.0,1.0,80,0.00,,,0.00,WUHU216DAVISVP2,2013-01-03 11:28:00,
2013-01-03 03:30:00,32.4,26.9,30.22,ENE,68,0.0,1.0,80,0.00,,,0.00,WUHU216DAVISVP2,2013-01-03 11:30:00,
2013-01-03 03:33:00,32.4,26.9,30.23,East,81,0.0,1.0,80,0.00,,,0.00,WUHU216DAVISVP2,2013-01-03 11:33:00,
2013-01-03 03:38:00,32.4,26.3,30.22,East,87,0.0,1.0,78,0.00,,,0.00,WUHU216DAVISVP2,2013-01-03 11:38:00,
2013-01-03 03:43:00,32.3,25.9,30.22,ENE,67,0.0,1.0,77,0.00,,,0.00,WUHU216DAVISVP2,2013-01-03 11:43:00,
2013-01-03 03:48:00,32.2,25.8,30.22,East,83,0.0,1.0,77,0.00,,,0.00,WUHU216DAVISVP2,2013-01-03 11:48:00,
2013-01-03 03:53:00,32.2,25.8,30.22,East,85,0.0,1.0,77,0.00,,,0.00,WUHU216DAVISVP2,2013-01-03 11:53:00,
2013-01-03 03:58:00,32.2,25.8,30.22,ENE,68,1.0,1.0,77,0.00,,,0.00,WUHU216DAVISVP2,2013-01-03 11:58:00,
2013-01-03 04:00:00,32.2,25.8,30.22,ENE,68,0.0,1.0,77,0.00,,,0.00,WUHU216DAVISVP2,2013-01-03 12:00:00,
2013-01-03 04:03:00,32.2,26.1,30.21,ENE,60,0.0,1.0,78,0.00,,,0.00,WUHU216DAVISVP2,2013-01-03 12:03:00,
2013-01-03 04:08:00,32.2,26.1,30.21,NE,49,0.0,1.0,78,0.00,,,0.00,WUHU216DAVISVP2,2013-01-03 12:08:00,
2013-01-03 04:13:00,32.0,26.2,30.21,ENE,65,0.0,1.0,79,0.00,,,0.00,WUHU216DAVISVP2,2013-01-03 12:13:00,
2013-01-03 04:18:00,32.0,26.2,30.21,ENE,67,0.0,1.0,79,0.00,,,0.00,WUHU216DAVISVP2,2013-01-03 12:18:00,
2013-01-03 04:23:00,32.0,26.5,30.20,East,80,0.0,1.0,80,0.00,,,0.00,WUHU216DAVISVP2,2013-01-03 12:23:00,
2013-01-03 04:28:00,32.0,26.2,30.20,ENE,67,0.0,1.0,79,0.00,,,0.00,WUHU216DAVISVP2,2013-01-03 12:28:00,
2013-01-03 04:30:00,32.0,26.2,30.20,ENE,68,0.0,1.0,79,0.00,,,0.00,WUHU216DAVISVP2,2013-01-03 12:30:00,
2013-01-03 04:33:00,32.0,26.2,30.20,ENE,74,1.0,1.0,79,0.00,,,0.00,WUHU216DAVISVP2,2013-01-03 12:33:00,
2013-01-03 04:38:00,31.9,26.4,30.20,ENE,75,0.0,1.0,80,0.00,,,0.00,WUHU216DAVISVP2,2013-01-03 12:38:00,
2013-01-03 04:43:00,31.8,26.3,30.19,ENE,70,0.0,1.0,80,0.00,,,0.00,WUHU216DAVISVP2,2013-01-03 12:43:00,
2013-01-03 04:48:00,31.7,26.2,30.20,ENE,68,0.0,1.0,80,0.00,,,0.00,WUHU216DAVISVP2,2013-01-03 12:48:00,
2013-01-03 04:53:00,31.7,26.5,30.20,ENE,68,0.0,1.0,81,0.00,,,0.00,WUHU216DAVISVP2,2013-01-03 12:53:00,
2013-01-03 04:58:00,32.0,26.5,30.19,ENE,67,0.0,1.0,80,0.00,,,0.00,WUHU216DAVISVP2,2013-01-03 12:58:00,
2013-01-03 05:00:00,32.0,26.5,30.19,ENE,68,0.0,1.0,80,0.00,,,0.00,WUHU216DAVISVP2,2013-01-03 13:00:00,
2013-01-03 05:03:00,31.8,26.3,30.19,ENE,67,0.0,1.0,80,0.00,,,0.00,WUHU216DAVISVP2,2013-01-03 13:03:00,
2013-01-03 05:08:00,31.6,26.4,30.19,ESE,116,0.0,1.0,81,0.00,,,0.00,WUHU216DAVISVP2,2013-01-03 13:08:00,
2013-01-03 05:13:00,31.3,25.8,30.19,ESE,115,0.0,1.0,80,0.00,,,0.00,WUHU216DAVISVP2,2013-01-03 13:13:00,
2013-01-03 05:18:00,31.2,26.0,30.19,ESE,116,0.0,0.0,81,0.00,,,0.00,WUHU216DAVISVP2,2013-01-03 13:18:00,
2013-01-03 05:23:00,31.4,25.9,30.19,ESE,116,0.0,0.0,80,0.00,,,0.00,WUHU216DAVISVP2,2013-01-03 13:23:00,
2013-01-03 05:28:00,31.7,25.3,30.19,East,93,0.0,0.0,77,0.00,,,0.00,WUHU216DAVISVP2,2013-01-03 13:28:00,
2013-01-03 05:30:00,31.8,25.4,30.19,North,0,0.0,0.0,77,0.00,,,0.00,WUHU216DAVISVP2,2013-01-03 13:30:00,
2013-01-03 05:33:00,31.9,25.5,30.19,East,82,0.0,0.0,77,0.00,,,0.00,WUHU216DAVISVP2,2013-01-03 13:33:00,
2013-01-03 05:38:00,31.9,25.5,30.18,ENE,61,0.0,1.0,77,0.00,,,0.00,WUHU216DAVISVP2,2013-01-03 13:38:00,
2013-01-03 05:43:00,31.9,25.5,30.18,ENE,60,0.0,1.0,77,0.00,,,0.00,WUHU216DAVISVP2,2013-01-03 13:43:00,
2013-01-03 05:48:00,32.0,25.3,30.18,ENE,61,0.0,1.0,76,0.00,,,0.00,WUHU216DAVISVP2,2013-01-03 13:48:00,
2013-01-03 05:53:00,32.0,25.6,30.18,ENE,61,0.0,1.0,77,0.00,,,0.00,WUHU216DAVISVP2,2013-01-03 13:53:00,
2013-01-03 05:58:00,32.1,25.4,30.18,ENE,63,0.0,1.0,76,0.00,,,0.00,WUHU216DAVISVP2,2013-01-03 13:58:00,
2013-01-03 06:00:00,32.1,25.4,30.18,ENE,68,0.0,1.0,76,0.00,,,0.00,WUHU216DAVISVP2,2013-01-03 14:00:00,
2013-01-03 06:03:00,32.3,25.3,30.17,East,97,0.0,0.0,75,0.00,,,0.00,WUHU216DAVISVP2,2013-01-03 14:03:00,
2013-01-03 06:08:00,32.3,25.6,30.18,ENE,71,0.0,0.0,76,0.00,,,0.00,WUHU216DAVISVP2,2013-01-03 14:08:00,
2013-01-03 06:13:00,32.1,25.7,30.17,ENE,63,0.0,0.0,77,0.00,,,0.00,WUHU216DAVISVP2,2013-01-03 14:13:00,
2013-01-03 06:18:00,31.9,25.5,30.17,ENE,63,0.0,0.0,77,0.00,,,0.00,WUHU216DAVISVP2,2013-01-03 14:18:00,
2013-01-03 06:23:00,31.7,25.6,30.17,ENE,63,0.0,0.0,78,0.00,,,0.00,WUHU216DAVISVP2,2013-01-03 14:23:00,
2013-01-03 06:28:00,31.4,25.7,30.17,ENE,65,0.0,0.0,79,0.00,,,0.00,WUHU216DAVISVP2,2013-01-03 14:28:00,
2013-01-03 06:30:00,31.3,25.5,30.17,North,0,0.0,0.0,79,0.00,,,0.00,WUHU216DAVISVP2,2013-01-03 14:30:00,
2013-01-03 06:33:00,31.4,25.7,30.17,ENE,65,0.0,0.0,79,0.00,,,0.00,WUHU216DAVISVP2,2013-01-03 14:33:00,
2013-01-03 06:38:00,31.4,25.7,30.16,ENE,74,2.0,2.0,79,0.00,,,0.00,WUHU216DAVISVP2,2013-01-03 14:38:00,
2013-01-03 06:43:00,31.6,25.8,30.16,NE,53,0.0,2.0,79,0.00,,,0.00,WUHU216DAVISVP2,2013-01-03 14:43:00,
2013-01-03 06:48:00,31.5,25.8,30.16,South,181,0.0,2.0,79,0.00,,,0.00,WUHU216DAVISVP2,2013-01-03 14:48:00,
2013-01-03 06:53:00,30.8,25.4,30.17,SW,224,0.0,3.0,80,0.00,,,0.00,WUHU216DAVISVP2,2013-01-03 14:53:00,
2013-01-03 06:58:00,30.2,25.4,30.17,SW,224,0.0,3.0,82,0.00,,,0.00,WUHU216DAVISVP2,2013-01-03 14:58:00,
2013-01-03 07:00:00,30.2,25.4,30.17,ENE,68,0.0,3.0,82,0.00,,,0.00,WUHU216DAVISVP2,2013-01-03 15:00:00,
2013-01-03 07:03:00,30.3,25.8,30.17,SSE,155,0.0,3.0,83,0.00,,,0.00,WUHU216DAVISVP2,2013-01-03 15:03:00,
2013-01-03 07:08:00,30.8,25.7,30.17,South,172,0.0,3.0,81,0.00,,,0.00,WUHU216DAVISVP2,2013-01-03 15:08:00,
2013-01-03 07:13:00,31.1,25.7,30.17,East,81,0.0,1.0,80,0.00,,,0.00,WUHU216DAVISVP2,2013-01-03 15:13:00,
2013-01-03 07:18:00,31.3,25.6,30.17,SE,134,0.0,1.0,79,0.00,,,0.00,WUHU216DAVISVP2,2013-01-03 15:18:00,
2013-01-03 07:23:00,31.4,25.4,30.17,East,93,0.0,1.0,78,0.00,,,0.00,WUHU216DAVISVP2,2013-01-03 15:23:00,
2013-01-03 07:28:00,31.6,24.9,30.16,ESE,115,2.0,3.0,76,0.00,,,0.00,WUHU216DAVISVP2,2013-01-03 15:28:00,
2013-01-03 07:30:00,31.7,24.7,30.16,SE,135,0.0,3.0,75,0.00,,,0.00,WUHU216DAVISVP2,2013-01-03 15:30:00,
2013-01-03 07:33:00,31.9,24.9,30.16,ENE,76,0.0,3.0,75,0.00,,,0.00,WUHU216DAVISVP2,2013-01-03 15:33:00,
2013-01-03 07:38:00,31.8,25.1,30.16,ENE,72,0.0,3.0,76,0.00,,,0.00,WUHU216DAVISVP2,2013-01-03 15:38:00,
2013-01-03 07:43:00,31.5,25.1,30.16,ENE,75,1.0,3.0,77,0.00,,,0.00,WUHU216DAVISVP2,2013-01-03 15:43:00,
2013-01-03 07:48:00,31.4,25.1,30.16,East,94,0.0,3.0,77,0.00,,,0.00,WUHU216DAVISVP2,2013-01-03 15:48:00,
2013-01-03 07:53:00,31.5,24.8,30.16,East,86,0.0,4.0,76,0.00,,,0.00,WUHU216DAVISVP2,2013-01-03 15:53:00,
2013-01-03 07:58:00,31.5,24.5,30.16,ESE,108,1.0,4.0,75,0.00,,,0.00,WUHU216DAVISVP2,2013-01-03 15:58:00,
2013-01-03 08:00:00,31.5,24.5,30.16,ENE,68,1.0,4.0,75,0.00,,,0.00,WUHU216DAVISVP2,2013-01-03 16:00:00,
2013-01-03 08:03:00,31.5,24.5,30.16,East,79,3.0,4.0,75,0.00,,,0.00,WUHU216DAVISVP2,2013-01-03 16:03:00,
2013-01-03 08:08:00,31.5,26.0,30.16,East,93,0.0,4.0,80,0.00,,,0.00,WUHU216DAVISVP2,2013-01-03 16:08:00,
2013-01-03 08:13:00,31.4,26.5,30.16,ENE,63,2.0,4.0,82,0.00,,,0.00,WUHU216DAVISVP2,2013-01-03 16:13:00,
2013-01-03 08:18:00,31.2,26.6,30.16,ENE,74,0.0,4.0,83,0.00,,,0.00,WUHU216DAVISVP2,2013-01-03 16:18:00,
2013-01-03 08:23:00,31.1,26.5,30.16,ENE,77,1.0,4.0,83,0.00,,,0.00,WUHU216DAVISVP2,2013-01-03 16:23:00,
2013-01-03 08:28:00,30.9,26.6,30.16,East,91,2.0,3.0,84,0.00,,,0.00,WUHU216DAVISVP2,2013-01-03 16:28:00,
2013-01-03 08:30:00,30.9,26.6,30.16,ENE,68,1.0,4.0,84,0.00,,,0.00,WUHU216DAVISVP2,2013-01-03 16:30:00,
2013-01-03 08:33:00,31.0,27.0,30.16,East,86,0.0,3.0,85,0.00,,,0.00,WUHU216DAVISVP2,2013-01-03 16:33:00,
2013-01-03 08:38:00,31.0,27.0,30.17,ESE,102,0.0,3.0,85,0.00,,,0.00,WUHU216DAVISVP2,2013-01-03 16:38:00,
2013-01-03 08:43:00,31.4,27.1,30.17,East,80,1.0,3.0,84,0.00,,,0.00,WUHU216DAVISVP2,2013-01-03 16:43:00,
2013-01-03 08:48:00,31.8,27.2,30.17,ESE,110,0.0,3.0,83,0.00,,,0.00,WUHU216DAVISVP2,2013-01-03 16:48:00,
2013-01-03 08:53:00,32.3,27.4,30.17,SE,130,0.0,2.0,82,0.00,,,0.00,WUHU216DAVISVP2,2013-01-03 16:53:00,
2013-01-03 08:58:00,33.0,27.2,30.17,ESE,112,0.0,2.0,79,0.00,,,0.00,WUHU216DAVISVP2,2013-01-03 16:58:00,
2013-01-03 09:00:00,33.1,27.0,30.17,ENE,68,0.0,3.0,78,0.00,,,0.00,WUHU216DAVISVP2,2013-01-03 17:00:00,
2013-01-03 09:03:00,33.4,27.3,30.17,ENE,76,0.0,2.0,78,0.00,,,0.00,WUHU216DAVISVP2,2013-01-03 17:03:00,
2013-01-03 09:08:00,33.6,27.5,30.17,ENE,75,2.0,4.0,78,0.00,,,0.00,WUHU216DAVISVP2,2013-01-03 17:08:00,
2013-01-03 09:13:00,33.5,28.0,30.17,ENE,78,1.0,6.0,80,0.00,,,0.00,WUHU216DAVISVP2,2013-01-03 17:13:00,
2013-01-03 09:18:00,33.5,28.6,30.17,ENE,58,2.0,6.0,82,0.00,,,0.00,WUHU216DAVISVP2,2013-01-03 17:18:00,
2013-01-03 09:23:00,33.5,28.6,30.17,ESE,122,0.0,5.0,82,0.00,,,0.00,WUHU216DAVISVP2,2013-01-03 17:23:00,
2013-01-03 09:28:00,33.9,28.4,30.17,SE,145,1.0,5.0,80,0.00,,,0.00,WUHU216DAVISVP2,2013-01-03 17:28:00,
2013-01-03 09:30:00,34.0,28.5,30.18,ENE,68,1.0,6.0,80,0.00,,,0.00,WUHU216DAVISVP2,2013-01-03 17:30:00,
2013-01-03 09:33:00,34.5,28.4,30.18,SE,146,1.0,4.0,78,0.00,,,0.00,WUHU216DAVISVP2,2013-01-03 17:33:00,
2013-01-03 09:38:00,34.7,28.3,30.17,East,87,2.0,3.0,77,0.00,,,0.00,WUHU216DAVISVP2,2013-01-03 17:38:00,
2013-01-03 09:43:00,34.8,28.0,30.17,ENE,77,3.0,4.0,76,0.00,,,0.00,WUHU216DAVISVP2,2013-01-03 17:43:00,
2013-01-03 09:48:00,35.0,27.9,30.17,ENE,72,2.0,4.0,75,0.00,,,0.00,WUHU216DAVISVP2,2013-01-03 17:48:00,
2013-01-03 09:53:00,35.5,27.8,30.17,East,87,0.0,4.0,73,0.00,,,0.00,WUHU216DAVISVP2,2013-01-03 17:53:00,
2013-01-03 09:58:00,36.1,27.7,30.18,SW,215,0.0,4.0,71,0.00,,,0.00,WUHU216DAVISVP2,2013-01-03 17:58:00,
2013-01-03 10:00:00,36.2,27.7,30.18,ENE,68,1.0,4.0,71,0.00,,,0.00,WUHU216DAVISVP2,2013-01-03 18:00:00,
2013-01-03 10:03:00,36.5,28.1,30.18,WSW,243,3.0,4.0,71,0.00,,,0.00,WUHU216DAVISVP2,2013-01-03 18:03:00,
2013-01-03 10:08:00,36.4,28.0,30.18,WSW,245,4.0,5.0,71,0.00,,,0.00,WUHU216DAVISVP2,2013-01-03 18:08:00,
2013-01-03 10:13:00,36.8,29.0,30.18,WSW,238,0.0,5.0,73,0.00,,,0.00,WUHU216DAVISVP2,2013-01-03 18:13:00,
2013-01-03 10:18:00,37.2,26.2,30.18,SW,217,1.0,5.0,64,0.00,,,0.00,WUHU216DAVISVP2,2013-01-03 18:18:00,
2013-01-03 10:23:00,37.4,26.4,30.18,WSW,249,3.0,4.0,64,0.00,,,0.00,WUHU216DAVISVP2,2013-01-03 18:23:00,
2013-01-03 10:28:00,37.7,24.7,30.18,WSW,249,1.0,4.0,59,0.00,,,0.00,WUHU216DAVISVP2,2013-01-03 18:28:00,
2013-01-03 10:30:00,37.9,25.2,30.18,WSW,248,1.0,5.0,60,0.00,,,0.00,WUHU216DAVISVP2,2013-01-03 18:30:00,
2013-01-03 10:33:00,38.3,24.0,30.18,SSE,163,0.0,4.0,56,0.00,,,0.00,WUHU216DAVISVP2,2013-01-03 18:33:00,
2013-01-03 10:38:00,38.4,22.7,30.18,ESE,117,0.0,7.0,53,0.00,,,0.00,WUHU216DAVISVP2,2013-01-03 18:38:00,
2013-01-03 10:43:00,38.6,22.9,30.18,South,169,2.0,7.0,53,0.00,,,0.00,WUHU216DAVISVP2,2013-01-03 18:43:00,
2013-01-03 10:48:00,39.0,22.8,30.18,WSW,250,4.0,7.0,52,0.00,,,0.00,WUHU216DAVISVP2,2013-01-03 18:48:00,
2013-01-03 10:53:00,39.1,22.4,30.18,WSW,254,4.0,7.0,51,0.00,,,0.00,WUHU216DAVISVP2,2013-01-03 18:53:00,
2013-01-03 10:58:00,39.5,23.3,30.18,SW,216,3.0,7.0,52,0.00,,,0.00,WUHU216DAVISVP2,2013-01-03 18:58:00,
2013-01-03 11:00:00,39.6,22.9,30.18,SW,225,2.0,7.0,51,0.00,,,0.00,WUHU216DAVISVP2,2013-01-03 19:00:00,
2013-01-03 11:03:00,39.6,24.8,30.18,SSW,208,2.0,7.0,55,0.00,,,0.00,WUHU216DAVISVP2,2013-01-03 19:03:00,
2013-01-03 11:08:00,39.6,26.9,30.18,SW,235,5.0,8.0,60,0.00,,,0.00,WUHU216DAVISVP2,2013-01-03 19:08:00,
2013-01-03 11:13:00,39.7,26.2,30.17,SW,235,5.0,8.0,58,0.00,,,0.00,WUHU216DAVISVP2,2013-01-03 19:13:00,
2013-01-03 11:18:00,40.0,25.6,30.17,WSW,250,6.0,9.0,56,0.00,,,0.00,WUHU216DAVISVP2,2013-01-03 19:18:00,
2013-01-03 11:30:00,40.4,23.2,30.17,WSW,248,4.0,11.0,50,0.00,,,0.00,WUHU216DAVISVP2,2013-01-03 19:30:00,
2013-01-03 11:56:00,42.3,22.3,30.16,SW,236,4.0,11.0,45,0.00,,,0.00,WUHU216DAVISVP2,2013-01-03 19:56:00,
2013-01-03 12:00:00,42.4,22.5,30.16,SW,225,4.0,12.0,45,0.00,,,0.00,WUHU216DAVISVP2,2013-01-03 20:00:00,
2013-01-03 12:01:00,42.4,22.4,30.16,WSW,238,7.0,12.0,45,0.00,,,0.00,WUHU216DAVISVP2,2013-01-03 20:01:00,
2013-01-03 12:06:00,42.2,22.9,30.16,WNW,284,6.0,13.0,46,0.00,,,0.00,WUHU216DAVISVP2,2013-01-03 20:06:00,
2013-01-03 12:11:00,41.9,23.6,30.16,SSW,193,8.0,13.0,48,0.00,,,0.00,WUHU216DAVISVP2,2013-01-03 20:11:00,
2013-01-03 12:16:00,41.5,27.9,30.16,SW,215,4.0,13.0,58,0.00,,,0.00,WUHU216DAVISVP2,2013-01-03 20:16:00,
2013-01-03 12:21:00,40.8,30.0,30.16,South,185,5.0,12.0,65,0.00,,,0.00,WUHU216DAVISVP2,2013-01-03 20:21:00,
2013-01-03 12:26:00,40.3,30.7,30.16,SSW,207,6.0,12.0,68,0.00,,,0.00,WUHU216DAVISVP2,2013-01-03 20:26:00,
2013-01-03 12:30:00,40.3,30.2,30.16,SW,225,7.0,13.0,67,0.00,,,0.00,WUHU216DAVISVP2,2013-01-03 20:30:00,
2013-01-03 12:31:00,40.3,30.3,30.16,SW,226,7.0,11.0,67,0.00,,,0.00,WUHU216DAVISVP2,2013-01-03 20:31:00,
2013-01-03 12:36:00,40.4,30.4,30.16,SW,229,5.0,11.0,67,0.00,,,0.00,WUHU216DAVISVP2,2013-01-03 20:36:00,
2013-01-03 12:41:00,40.3,30.7,30.15,WSW,246,5.0,11.0,68,0.00,,,0.00,WUHU216DAVISVP2,2013-01-03 20:41:00,
2013-01-03 12:46:00,40.4,31.0,30.15,SSW,211,3.0,11.0,69,0.00,,,0.00,WUHU216DAVISVP2,2013-01-03 20:46:00,
2013-01-03 12:51:00,40.5,30.8,30.15,WSW,238,3.0,11.0,68,0.00,,,0.00,WUHU216DAVISVP2,2013-01-03 20:51:00,
2013-01-03 12:56:00,40.5,30.8,30.15,SW,232,3.0,11.0,68,0.00,,,0.00,WUHU216DAVISVP2,2013-01-03 20:56:00,
2013-01-03 13:00:00,40.5,30.0,30.15,SW,225,6.0,11.0,66,0.00,,,0.00,WUHU216DAVISVP2,2013-01-03 21:00:00,
2013-01-03 13:01:00,40.5,30.4,30.15,SSW,212,3.0,11.0,67,0.00,,,0.00,WUHU216DAVISVP2,2013-01-03 21:01:00,
2013-01-03 13:06:00,40.9,30.5,30.15,WSW,240,7.0,11.0,66,0.00,,,0.00,WUHU216DAVISVP2,2013-01-03 21:06:00,
2013-01-03 13:11:00,40.8,30.0,30.15,WSW,238,8.0,10.0,65,0.00,,,0.00,WUHU216DAVISVP2,2013-01-03 21:11:00,
2013-01-03 13:16:00,41.0,30.2,30.15,SW,218,2.0,11.0,65,0.00,,,0.00,WUHU216DAVISVP2,2013-01-03 21:16:00,
2013-01-03 13:21:00,41.1,29.9,30.15,SSW,198,4.0,11.0,64,0.00,,,0.00,WUHU216DAVISVP2,2013-01-03 21:21:00,
2013-01-03 13:26:00,41.0,29.7,30.14,SSW,196,3.0,10.0,64,0.00,,,0.00,WUHU216DAVISVP2,2013-01-03 21:26:00,
2013-01-03 13:30:00,41.0,29.7,30.14,WSW,248,5.0,11.0,64,0.00,,,0.00,WUHU216DAVISVP2,2013-01-03 21:30:00,
2013-01-03 13:31:00,41.1,29.9,30.14,SSW,211,1.0,10.0,64,0.00,,,0.00,WUHU216DAVISVP2,2013-01-03 21:31:00,
2013-01-03 13:36:00,41.5,29.5,30.14,SW,235,0.0,9.0,62,0.00,,,0.00,WUHU216DAVISVP2,2013-01-03 21:36:00,
2013-01-03 13:41:00,42.1,28.8,30.14,South,191,3.0,9.0,59,0.00,,,0.00,WUHU216DAVISVP2,2013-01-03 21:41:00,
2013-01-03 13:46:00,42.5,28.8,30.13,SSE,151,2.0,8.0,58,0.00,,,0.00,WUHU216DAVISVP2,2013-01-03 21:46:00,
2013-01-03 13:51:00,43.1,28.9,30.13,SW,236,1.0,8.0,57,0.00,,,0.00,WUHU216DAVISVP2,2013-01-03 21:51:00,
2013-01-03 13:56:00,43.7,28.1,30.14,SE,126,2.0,8.0,54,0.00,,,0.00,WUHU216DAVISVP2,2013-01-03 21:56:00,
2013-01-03 14:00:00,43.9,28.3,30.13,SW,225,3.0,8.0,54,0.00,,,0.00,WUHU216DAVISVP2,2013-01-03 22:00:00,
2013-01-03 14:01:00,43.9,27.9,30.14,South,185,4.0,7.0,53,0.00,,,0.00,WUHU216DAVISVP2,2013-01-03 22:01:00,
2013-01-03 14:06:00,44.3,27.8,30.14,WSW,246,4.0,7.0,52,0.00,,,0.00,WUHU216DAVISVP2,2013-01-03 22:06:00,
2013-01-03 14:11:00,44.2,29.1,30.14,SW,225,4.0,7.0,55,0.00,,,0.00,WUHU216DAVISVP2,2013-01-03 22:11:00,
2013-01-03 14:16:00,44.2,30.8,30.14,SW,218,0.0,7.0,59,0.00,,,0.00,WUHU216DAVISVP2,2013-01-03 22:16:00,
2013-01-03 14:21:00,43.9,31.0,30.14,WSW,252,4.0,9.0,60,0.00,,,0.00,WUHU216DAVISVP2,2013-01-03 22:21:00,
2013-01-03 14:26:00,43.6,31.1,30.14,WSW,242,8.0,9.0,61,0.00,,,0.00,WUHU216DAVISVP2,2013-01-03 22:26:00,
2013-01-03 14:30:00,43.1,30.6,30.14,SW,225,3.0,9.0,61,0.00,,,0.00,WUHU216DAVISVP2,2013-01-03 22:30:00,
2013-01-03 14:31:00,42.8,30.7,30.14,SW,221,4.0,9.0,62,0.00,,,0.00,WUHU216DAVISVP2,2013-01-03 22:31:00,
2013-01-03 14:36:00,42.8,31.2,30.14,WSW,249,4.0,9.0,63,0.00,,,0.00,WUHU216DAVISVP2,2013-01-03 22:36:00,
2013-01-03 14:41:00,42.8,31.2,30.14,WSW,245,4.0,8.0,63,0.00,,,0.00,WUHU216DAVISVP2,2013-01-03 22:41:00,
2013-01-03 14:46:00,42.9,30.9,30.14,WSW,257,4.0,8.0,62,0.00,,,0.00,WUHU216DAVISVP2,2013-01-03 22:46:00,
2013-01-03 14:51:00,42.9,30.4,30.15,WSW,247,3.0,7.0,61,0.00,,,0.00,WUHU216DAVISVP2,2013-01-03 22:51:00,
2013-01-03 14:56:00,43.1,31.0,30.15,SW,228,1.0,7.0,62,0.00,,,0.00,WUHU216DAVISVP2,2013-01-03 22:56:00,
2013-01-03 15:00:00,43.0,30.9,30.15,WSW,248,3.0,7.0,62,0.00,,,0.00,WUHU216DAVISVP2,2013-01-03 23:00:00,
2013-01-03 15:01:00,42.8,30.8,30.15,West,276,2.0,7.0,62,0.00,,,0.00,WUHU216DAVISVP2,2013-01-03 23:01:00,
2013-01-03 15:06:00,42.2,30.6,30.16,SW,225,4.0,7.0,63,0.00,,,0.00,WUHU216DAVISVP2,2013-01-03 23:06:00,
2013-01-03 15:11:00,41.8,30.6,30.16,WSW,252,9.0,11.0,64,0.00,,,0.00,WUHU216DAVISVP2,2013-01-03 23:11:00,
2013-01-03 15:16:00,41.5,30.3,30.17,SSW,212,3.0,11.0,64,0.00,,,0.00,WUHU216DAVISVP2,2013-01-03 23:16:00,
2013-01-03 15:21:00,41.4,30.2,30.17,WSW,245,3.0,10.0,64,0.00,,,0.00,WUHU216DAVISVP2,2013-01-03 23:21:00,
2013-01-03 15:26:00,41.2,29.6,30.17,SW,232,5.0,11.0,63,0.00,,,0.00,WUHU216DAVISVP2,2013-01-03 23:26:00,
2013-01-03 15:30:00,41.1,29.5,30.17,WSW,248,4.0,11.0,63,0.00,,,0.00,WUHU216DAVISVP2,2013-01-03 23:30:00,
2013-01-03 15:31:00,41.1,29.5,30.17,WSW,240,1.0,11.0,63,0.00,,,0.00,WUHU216DAVISVP2,2013-01-03 23:31:00,
2013-01-03 15:36:00,41.0,29.8,30.17,South,169,0.0,10.0,64,0.00,,,0.00,WUHU216DAVISVP2,2013-01-03 23:36:00,
2013-01-03 15:41:00,40.9,29.7,30.17,SSE,148,1.0,10.0,64,0.00,,,0.00,WUHU216DAVISVP2,2013-01-03 23:41:00,
2013-01-03 15:46:00,40.9,29.7,30.17,ESE,118,2.0,6.0,64,0.00,,,0.00,WUHU216DAVISVP2,2013-01-03 23:46:00,
2013-01-03 15:51:00,41.0,29.8,30.17,WSW,252,2.0,6.0,64,0.00,,,0.00,WUHU216DAVISVP2,2013-01-03 23:51:00,
2013-01-03 15:56:00,41.0,29.8,30.16,SSE,166,0.0,6.0,64,0.00,,,0.00,WUHU216DAVISVP2,2013-01-03 23:56:00,
2013-01-03 16:00:00,41.0,29.7,30.16,SW,225,1.0,6.0,64,0.00,,,0.00,WUHU216DAVISVP2,2013-01-04 00:00:00,
2013-01-03 16:01:00,41.0,29.7,30.16,SSE,150,2.0,6.0,64,0.00,,,0.00,WUHU216DAVISVP2,2013-01-04 00:01:00,
2013-01-03 16:06:00,41.0,29.8,30.16,SE,145,0.0,5.0,64,0.00,,,0.00,WUHU216DAVISVP2,2013-01-04 00:06:00,
2013-01-03 16:11:00,41.0,29.8,30.16,WSW,257,4.0,5.0,64,0.00,,,0.00,WUHU216DAVISVP2,2013-01-04 00:11:00,
2013-01-03 16:16:00,41.0,30.2,30.16,SSE,148,0.0,5.0,65,0.00,,,0.00,WUHU216DAVISVP2,2013-01-04 00:16:00,
2013-01-03 16:21:00,40.9,29.7,30.16,SE,139,3.0,5.0,64,0.00,,,0.00,WUHU216DAVISVP2,2013-01-04 00:21:00,
2013-01-03 16:26:00,41.1,28.7,30.16,East,101,2.0,6.0,61,0.00,,,0.00,WUHU216DAVISVP2,2013-01-04 00:26:00,
2013-01-03 16:30:00,41.3,28.4,30.16,SW,225,2.0,6.0,60,0.00,,,0.00,WUHU216DAVISVP2,2013-01-04 00:30:00,
2013-01-03 16:31:00,41.3,28.5,30.16,South,172,0.0,6.0,60,0.00,,,0.00,WUHU216DAVISVP2,2013-01-04 00:31:00,
2013-01-03 16:36:00,41.3,26.3,30.16,East,101,4.0,6.0,55,0.00,,,0.00,WUHU216DAVISVP2,2013-01-04 00:36:00,
2013-01-03 16:41:00,41.4,25.5,30.17,SW,228,3.0,8.0,53,0.00,,,0.00,WUHU216DAVISVP2,2013-01-04 00:41:00,
2013-01-03 16:46:00,41.5,24.7,30.16,SE,146,2.0,8.0,51,0.00,,,0.00,WUHU216DAVISVP2,2013-01-04 00:46:00,
2013-01-03 16:51:00,41.5,24.2,30.17,WSW,246,1.0,11.0,50,0.00,,,0.00,WUHU216DAVISVP2,2013-01-04 00:51:00,
2013-01-03 16:56:00,41.4,23.6,30.17,WSW,253,3.0,11.0,49,0.00,,,0.00,WUHU216DAVISVP2,2013-01-04 00:56:00,
2013-01-03 17:00:00,41.4,23.6,30.17,SSW,203,3.0,11.0,49,0.00,,,0.00,WUHU216DAVISVP2,2013-01-04 01:00:00,
2013-01-03 17:01:00,41.4,23.6,30.17,SW,229,5.0,11.0,49,0.00,,,0.00,WUHU216DAVISVP2,2013-01-04 01:01:00,
2013-01-03 17:06:00,41.3,23.5,30.16,SSW,208,2.0,11.0,49,0.00,,,0.00,WUHU216DAVISVP2,2013-01-04 01:06:00,
2013-01-03 17:11:00,41.0,23.7,30.16,WSW,253,3.0,10.0,50,0.00,,,0.00,WUHU216DAVISVP2,2013-01-04 01:11:00,
2013-01-03 17:16:00,40.8,24.5,30.16,South,176,3.0,10.0,52,0.00,,,0.00,WUHU216DAVISVP2,2013-01-04 01:16:00,
2013-01-03 17:21:00,40.5,24.2,30.16,SW,224,6.0,10.0,52,0.00,,,0.00,WUHU216DAVISVP2,2013-01-04 01:21:00,
2013-01-03 17:26:00,40.4,23.7,30.16,SSW,200,1.0,10.0,51,0.00,,,0.00,WUHU216DAVISVP2,2013-01-04 01:26:00,
2013-01-03 17:30:00,40.3,23.6,30.15,SW,225,3.0,10.0,51,0.00,,,0.00,WUHU216DAVISVP2,2013-01-04 01:30:00,
2013-01-03 17:31:00,40.3,23.6,30.15,South,176,1.0,8.0,51,0.00,,,0.00,WUHU216DAVISVP2,2013-01-04 01:31:00,
2013-01-03 17:36:00,40.3,23.6,30.15,East,79,1.0,7.0,51,0.00,,,0.00,WUHU216DAVISVP2,2013-01-04 01:36:00,
2013-01-03 17:41:00,40.3,23.6,30.14,SE,137,0.0,5.0,51,0.00,,,0.00,WUHU216DAVISVP2,2013-01-04 01:41:00,
2013-01-03 17:46:00,40.4,24.1,30.13,SE,134,0.0,4.0,52,0.00,,,0.00,WUHU216DAVISVP2,2013-01-04 01:46:00,
2013-01-03 17:51:00,40.4,23.7,30.13,ENE,72,1.0,1.0,51,0.00,,,0.00,WUHU216DAVISVP2,2013-01-04 01:51:00,
2013-01-03 17:56:00,40.5,24.2,30.13,ENE,58,0.0,3.0,52,0.00,,,0.00,WUHU216DAVISVP2,2013-01-04 01:56:00,
2013-01-03 18:00:00,40.5,24.2,30.13,ENE,68,0.0,4.0,52,0.00,,,0.00,WUHU216DAVISVP2,2013-01-04 02:00:00,
2013-01-03 18:01:00,40.5,24.2,30.14,SE,145,0.0,3.0,52,0.00,,,0.00,WUHU216DAVISVP2,2013-01-04 02:01:00,
2013-01-03 18:06:00,40.5,24.7,30.15,WSW,254,3.0,4.0,53,0.00,,,0.00,WUHU216DAVISVP2,2013-01-04 02:06:00,
2013-01-03 18:11:00,40.4,25.9,30.17,SSW,208,7.0,8.0,56,0.00,,,0.00,WUHU216DAVISVP2,2013-01-04 02:11:00,
2013-01-03 18:16:00,40.1,27.3,30.17,SSW,204,0.0,8.0,60,0.00,,,0.00,WUHU216DAVISVP2,2013-01-04 02:16:00,
2013-01-03 18:21:00,40.0,26.8,30.17,SW,218,6.0,15.0,59,0.00,,,0.00,WUHU216DAVISVP2,2013-01-04 02:21:00,
2013-01-03 18:26:00,40.0,27.3,30.17,WSW,246,8.0,15.0,60,0.00,,,0.00,WUHU216DAVISVP2,2013-01-04 02:26:00,
2013-01-03 18:30:00,40.0,26.8,30.18,WSW,248,4.0,15.0,59,0.00,,,0.00,WUHU216DAVISVP2,2013-01-04 02:30:00,
2013-01-03 18:31:00,40.0,26.9,30.17,West,273,4.0,15.0,59,0.00,,,0.00,WUHU216DAVISVP2,2013-01-04 02:31:00,
2013-01-03 18:36:00,40.0,30.0,30.17,SW,232,4.0,15.0,67,0.00,,,0.00,WUHU216DAVISVP2,2013-01-04 02:36:00,
2013-01-03 18:41:00,39.6,32.1,30.17,SW,218,3.0,8.0,74,0.01,,,0.01,WUHU216DAVISVP2,2013-01-04 02:41:00,
2013-01-03 18:46:00,39.1,31.6,30.17,WSW,248,0.0,7.0,74,0.02,,,0.02,WUHU216DAVISVP2,2013-01-04 02:46:00,
2013-01-03 18:51:00,38.7,31.2,30.17,South,179,0.0,7.0,74,0.03,,,0.03,WUHU216DAVISVP2,2013-01-04 02:51:00,
2013-01-03 18:56:00,38.3,31.4,30.17,SW,226,2.0,6.0,76,0.04,,,0.04,WUHU216DAVISVP2,2013-01-04 02:56:00,
2013-01-03 19:00:00,38.1,31.2,30.17,SW,225,2.0,8.0,76,0.00,,,0.00,WUHU216DAVISVP2,2013-01-04 03:00:00,
2013-01-03 19:01:00,38.0,31.4,30.17,East,81,0.0,5.0,77,0.05,,,0.05,WUHU216DAVISVP2,2013-01-04 03:01:00,
2013-01-03 19:06:00,37.6,31.0,30.17,WSW,249,0.0,5.0,77,0.06,,,0.06,WUHU216DAVISVP2,2013-01-04 03:06:00,
2013-01-03 19:11:00,37.2,31.0,30.17,ENE,61,0.0,3.0,78,0.07,,,0.07,WUHU216DAVISVP2,2013-01-04 03:11:00,
2013-01-03 19:16:00,37.1,31.5,30.17,ENE,77,0.0,2.0,80,0.07,,,0.07,WUHU216DAVISVP2,2013-01-04 03:16:00,
2013-01-03 19:21:00,36.9,31.9,30.17,NE,41,0.0,2.0,82,0.08,,,0.08,WUHU216DAVISVP2,2013-01-04 03:21:00,
2013-01-03 19:26:00,36.7,31.7,30.17,NE,41,0.0,1.0,82,0.08,,,0.08,WUHU216DAVISVP2,2013-01-04 03:26:00,
2013-01-03 19:30:00,36.7,31.7,30.17,ENE,68,0.0,3.0,82,0.05,,,0.05,WUHU216DAVISVP2,2013-01-04 03:30:00,
2013-01-03 19:31:00,36.7,32.0,30.17,NE,43,0.0,1.0,83,0.08,,,0.08,WUHU216DAVISVP2,2013-01-04 03:31:00,
2013-01-03 19:36:00,36.6,31.9,30.17,SE,141,0.0,1.0,83,0.09,,,0.09,WUHU216DAVISVP2,2013-01-04 03:36:00,
2013-01-03 19:41:00,36.5,32.1,30.17,South,169,0.0,1.0,84,0.08,,,0.09,WUHU216DAVISVP2,2013-01-04 03:41:00,
2013-01-03 19:46:00,36.5,31.5,30.17,WSW,253,0.0,2.0,82,0.07,,,0.09,WUHU216DAVISVP2,2013-01-04 03:46:00,
2013-01-03 19:51:00,36.5,32.1,30.17,WSW,253,0.0,2.0,84,0.06,,,0.09,WUHU216DAVISVP2,2013-01-04 03:51:00,
2013-01-03 19:56:00,36.3,31.9,30.16,ENE,63,0.0,2.0,84,0.06,,,0.10,WUHU216DAVISVP2,2013-01-04 03:56:00,
2013-01-03 20:00:00,36.2,32.1,30.17,SSE,158,0.0,2.0,85,0.03,,,0.08,WUHU216DAVISVP2,2013-01-04 04:00:00,
2013-01-03 20:01:00,36.2,32.1,30.17,East,101,0.0,2.0,85,0.05,,,0.10,WUHU216DAVISVP2,2013-01-04 04:01:00,
2013-01-03 20:06:00,36.1,32.3,30.17,SSE,159,0.0,3.0,86,0.05,,,0.11,WUHU216DAVISVP2,2013-01-04 04:06:00,
2013-01-03 20:11:00,36.0,31.9,30.17,SE,129,0.0,3.0,85,0.04,,,0.11,WUHU216DAVISVP2,2013-01-04 04:11:00,
2013-01-03 20:16:00,35.9,32.4,30.17,East,84,0.0,3.0,87,0.05,,,0.12,WUHU216DAVISVP2,2013-01-04 04:16:00,
2013-01-03 20:21:00,35.8,32.8,30.18,North,1,0.0,3.0,89,0.04,,,0.12,WUHU216DAVISVP2,2013-01-04 04:21:00,
2013-01-03 20:26:00,35.6,32.9,30.18,North,1,0.0,1.0,90,0.04,,,0.12,WUHU216DAVISVP2,2013-01-04 04:26:00,
2013-01-03 20:30:00,35.5,32.9,30.17,ENE,68,0.0,3.0,90,0.02,,,0.10,WUHU216DAVISVP2,2013-01-04 04:30:00,
2013-01-03 20:31:00,35.5,32.9,30.17,North,8,1.0,1.0,90,0.04,,,0.12,WUHU216DAVISVP2,2013-01-04 04:31:00,
2013-01-03 20:36:00,35.4,33.0,30.18,NNE,21,0.0,1.0,91,0.03,,,0.12,WUHU216DAVISVP2,2013-01-04 04:36:00,
2013-01-03 20:41:00,35.5,33.4,30.17,NNE,22,0.0,1.0,92,0.03,,,0.12,WUHU216DAVISVP2,2013-01-04 04:41:00,
2013-01-03 20:46:00,35.5,33.4,30.17,NNE,21,0.0,1.0,92,0.04,,,0.13,WUHU216DAVISVP2,2013-01-04 04:46:00,
2013-01-03 20:51:00,35.4,33.3,30.18,NW,322,0.0,0.0,92,0.04,,,0.13,WUHU216DAVISVP2,2013-01-04 04:51:00,
2013-01-03 20:56:00,35.4,33.3,30.18,NW,322,0.0,0.0,92,0.04,,,0.14,WUHU216DAVISVP2,2013-01-04 04:56:00,
2013-01-03 21:00:00,35.4,33.5,30.18,NW,322,0.0,0.0,93,0.04,,,0.14,WUHU216DAVISVP2,2013-01-04 05:00:00,
2013-01-03 21:02:00,35.4,33.5,30.18,NW,322,0.0,0.0,93,0.04,,,0.14,WUHU216DAVISVP2,2013-01-04 05:02:00,
2013-01-03 21:07:00,35.4,33.5,30.18,NW,322,0.0,0.0,93,0.03,,,0.14,WUHU216DAVISVP2,2013-01-04 05:07:00,
2013-01-03 21:12:00,35.3,33.4,30.18,NW,323,0.0,0.0,93,0.03,,,0.14,WUHU216DAVISVP2,2013-01-04 05:12:00,
2013-01-03 21:17:00,35.3,33.4,30.18,NW,323,0.0,0.0,93,0.02,,,0.14,WUHU216DAVISVP2,2013-01-04 05:17:00,
2013-01-03 21:22:00,35.3,33.4,30.18,NNW,330,0.0,0.0,93,0.02,,,0.15,WUHU216DAVISVP2,2013-01-04 05:22:00,
2013-01-03 21:27:00,35.2,33.3,30.18,NNW,330,0.0,0.0,93,0.03,,,0.15,WUHU216DAVISVP2,2013-01-04 05:27:00,
2013-01-03 21:30:00,35.2,33.4,30.18,North,0,0.0,0.0,93,0.02,,,0.14,WUHU216DAVISVP2,2013-01-04 05:30:00,
2013-01-03 21:32:00,35.1,33.2,30.18,North,357,0.0,0.0,93,0.03,,,0.15,WUHU216DAVISVP2,2013-01-04 05:32:00,
2013-01-03 21:37:00,35.0,33.4,30.18,North,8,0.0,1.0,94,0.04,,,0.16,WUHU216DAVISVP2,2013-01-04 05:37:00,
2013-01-03 21:42:00,35.0,33.4,30.18,North,6,0.0,1.0,94,0.04,,,0.16,WUHU216DAVISVP2,2013-01-04 05:42:00,
2013-01-03 21:47:00,35.0,33.4,30.18,NNE,12,0.0,1.0,94,0.04,,,0.17,WUHU216DAVISVP2,2013-01-04 05:47:00,
2013-01-03 21:52:00,35.0,33.4,30.18,NNE,12,0.0,1.0,94,0.04,,,0.17,WUHU216DAVISVP2,2013-01-04 05:52:00,
2013-01-03 21:57:00,35.1,33.5,30.18,North,11,0.0,1.0,94,0.03,,,0.17,WUHU216DAVISVP2,2013-01-04 05:57:00,
2013-01-03 22:00:00,35.1,33.5,30.18,North,0,0.0,1.0,94,0.01,,,0.15,WUHU216DAVISVP2,2013-01-04 06:00:00,
2013-01-03 22:02:00,35.1,33.5,30.18,North,8,0.0,1.0,94,0.04,,,0.18,WUHU216DAVISVP2,2013-01-04 06:02:00,
2013-01-03 22:07:00,35.1,33.8,30.19,NNE,12,0.0,1.0,95,0.05,,,0.19,WUHU216DAVISVP2,2013-01-04 06:07:00,
2013-01-03 22:12:00,35.1,33.8,30.19,North,8,0.0,1.0,95,0.05,,,0.19,WUHU216DAVISVP2,2013-01-04 06:12:00,
2013-01-03 22:17:00,35.1,33.8,30.19,North,8,0.0,1.0,95,0.05,,,0.19,WUHU216DAVISVP2,2013-01-04 06:17:00,
2013-01-03 22:22:00,35.1,33.8,30.19,East,84,0.0,1.0,95,0.05,,,0.20,WUHU216DAVISVP2,2013-01-04 06:22:00,
2013-01-03 22:27:00,35.2,33.9,30.19,NE,37,0.0,1.0,95,0.05,,,0.20,WUHU216DAVISVP2,2013-01-04 06:27:00,
2013-01-03 22:30:00,35.2,33.9,30.19,North,0,0.0,1.0,95,0.02,,,0.17,WUHU216DAVISVP2,2013-01-04 06:30:00,
2013-01-03 22:32:00,35.3,34.0,30.19,ENE,59,0.0,1.0,95,0.06,,,0.21,WUHU216DAVISVP2,2013-01-04 06:32:00,
2013-01-03 22:37:00,35.4,34.1,30.19,ENE,70,0.0,1.0,95,0.05,,,0.21,WUHU216DAVISVP2,2013-01-04 06:37:00,
2013-01-03 22:42:00,35.4,34.1,30.19,NE,49,3.0,3.0,95,0.05,,,0.21,WUHU216DAVISVP2,2013-01-04 06:42:00,
2013-01-03 22:47:00,35.5,34.2,30.19,ENE,77,1.0,3.0,95,0.05,,,0.22,WUHU216DAVISVP2,2013-01-04 06:47:00,
2013-01-03 22:52:00,35.6,34.6,30.20,East,82,0.0,3.0,96,0.06,,,0.23,WUHU216DAVISVP2,2013-01-04 06:52:00,
2013-01-03 22:57:00,35.6,34.5,30.20,East,96,0.0,3.0,96,0.06,,,0.23,WUHU216DAVISVP2,2013-01-04 06:57:00,
2013-01-03 23:00:00,35.7,34.7,30.20,ENE,68,0.0,3.0,96,0.03,,,0.20,WUHU216DAVISVP2,2013-01-04 07:00:00,
2013-01-03 23:02:00,35.7,34.6,30.20,East,84,2.0,3.0,96,0.05,,,0.23,WUHU216DAVISVP2,2013-01-04 07:02:00,
2013-01-03 23:07:00,35.8,34.7,30.20,ENE,62,3.0,4.0,96,0.05,,,0.24,WUHU216DAVISVP2,2013-01-04 07:07:00,
2013-01-03 23:12:00,35.8,34.7,30.20,NE,53,4.0,5.0,96,0.06,,,0.25,WUHU216DAVISVP2,2013-01-04 07:12:00,
2013-01-03 23:17:00,35.8,34.7,30.20,ENE,65,2.0,5.0,96,0.06,,,0.25,WUHU216DAVISVP2,2013-01-04 07:17:00,
2013-01-03 23:22:00,35.9,34.8,30.20,ENE,75,3.0,5.0,96,0.06,,,0.26,WUHU216DAVISVP2,2013-01-04 07:22:00,
2013-01-03 23:27:00,36.0,34.9,30.20,ENE,61,2.0,5.0,96,0.06,,,0.26,WUHU216DAVISVP2,2013-01-04 07:27:00,
2013-01-03 23:30:00,36.0,35.0,30.20,ENE,68,3.0,5.0,96,0.03,,,0.23,WUHU216DAVISVP2,2013-01-04 07:30:00,
2013-01-03 23:32:00,36.1,35.0,30.20,ENE,74,2.0,5.0,96,0.05,,,0.26,WUHU216DAVISVP2,2013-01-04 07:32:00,
2013-01-03 23:37:00,36.2,35.1,30.20,ENE,72,4.0,4.0,96,0.06,,,0.27,WUHU216DAVISVP2,2013-01-04 07:37:00,
2013-01-03 23:42:00,36.4,35.4,30.20,ENE,70,3.0,4.0,96,0.06,,,0.27,WUHU216DAVISVP2,2013-01-04 07:42:00,
2013-01-03 23:47:00,36.5,35.5,30.20,East,79,2.0,4.0,96,0.05,,,0.27,WUHU216DAVISVP2,2013-01-04 07:47:00,
2013-01-03 23:52:00,36.5,35.4,30.20,ENE,74,3.0,5.0,96,0.05,,,0.28,WUHU216DAVISVP2,2013-01-04 07:52:00,
2013-01-03 23:57:00,36.5,35.4,30.20,ENE,61,2.0,5.0,96,0.05,,,0.28,WUHU216DAVISVP2,2013-01-04 07:57:00,